Regional Weather Roundup
Issued by NWS State College, PA

Home | Current Version | Previous Version | Graphics & Text | Print | Product List | Glossary On
Versions: 1 2 3 4 5 6 7 8 9 10 11 12 13 14 15 16 17 18 19 20 21 22 23 24 25 26 27 28 29 30 31 32 33 34 35 36 37 38 39 40 41 42 43 44 45 46 47 48 49 50
000
ASUS41 KCTP 171103
RWRCTP

REGIONAL WEATHER ROUNDUP
NATIONAL WEATHER SERVICE STATE COLLEGE PA
600 AM EST SUN DEC 17 2017

Note: "fair" indicates few or no clouds below 12,000 feet with no
significant weather and/or obstructions to visibility.

* = STATION THAT DOES NOT REPORT PRECIPITATION /E.G. RAIN...SNOW...ETC/
    THUNDER OR FOG.

PAZ002>004-007>009-013>016-020>023-029>032-171200-
WESTERN PENNSYLVANIA

CITY           SKY/WX    TMP DP  RH WIND       PRES   REMARKS
ERIE           PTCLDY    23  19  85 NE10      30.20R WCI  12
MEADVILLE      CLOUDY    20  19  96 CALM      30.16R FOG
FRANKLIN*      PTCLDY    21  21 100 S3        30.15R FOG
NEW CASTLE     FAIR      20  18  92 CALM      30.18R FOG
BEAVER COUNTY  NOT AVBL
BUTLER*        CLOUDY    27  25  92 CALM      30.17
PITTSBURGH INT CLOUDY    37  27  67 SW8       30.17R
PITTSBURGH     CLOUDY    33  24  69 S8        30.16R
INDIANA*       CLOUDY    23  21  93 CALM      30.20S
LATROBE        CLOUDY    34  27  75 S10       30.18S
WASHINGTON CO* CLOUDY    34  26  72 SW6       30.21
$$

PAZ004>006-010>012-017>019-024>028-033>037-041-042-045-046-049>053-171200-
CENTRAL PENNSYLVANIA

CITY           SKY/WX    TMP DP  RH WIND       PRES   REMARKS
BRADFORD       FOG       27  27 100 CALM      30.13R VSB 1/4
DUBOIS         CLOUDY    23  19  85 CALM      30.13R FOG
CLEARFIELD     CLOUDY    21  20  96 CALM      30.17R FOG
JOHNSTOWN      CLOUDY    35  26  69 W14       30.12R
ALTOONA        CLOUDY    31  24  75 S5        30.17R
STATE COLLEGE  MOCLDY    25  23  93 CALM      30.18R
WILLIAMSPORT   CLOUDY    34  25  69 CALM      30.21R
SELINSGROVE    CLOUDY    32  28  85 CALM      30.23R
FT INDIANTOWN  CLOUDY    29  29  99 NE3       30.22R
CAPITAL CITY   PTCLDY    25  20  81 CALM      30.23R
HARRISBURG     PTCLDY    24  22  91 CALM      30.22R
YORK           PTCLDY    22  21  96 CALM      30.21R
$$

PAZ038>040-043-044-047-048-054-055-060>062-067>071-171200-
EASTERN PENNSYLVANIA

CITY           SKY/WX    TMP DP  RH WIND       PRES   REMARKS
SCRANTON       CLOUDY    27  21  78 NE6       30.21R
MOUNT POCONO   CLOUDY    24  22  91 CALM      30.13S
ALLENTOWN      CLOUDY    31  23  72 E5        30.23R
QUAKERTOWN*    CLOUDY    28  25  86 CALM      30.23R
READING        PTCLDY    30  28  92 NW3       30.23R
LANCASTER      MOCLDY    27  25  92 CALM      30.22R
COATESVILLE    PTSUNNY   28  27  93 CALM      30.23R
POTTSTOWN      CLOUDY    25  23  92 CALM      30.25R
BLUE BELL      CLOUDY    27  27 100 CALM      30.26R
DOYLESTOWN     PTCLDY    30  23  75 CALM      30.23R
WILLOW GROVE   NOT AVBL
NORTH PHILA    PTCLDY    32  25  75 NE3       30.26R
PHILADELPHIA   CLOUDY    33  25  72 E5        30.26R
$$




USA.gov is the U.S. government's official web portal to all federal, state and local government web resources and services.